Погода в Несебыре

Болгария     42°39′37″N   27°42′58″E
темп.,
°C
ветер,
м/с
пор.,
м/с
влажн.,
%
обл.,
%
осадки,
мм/ч
давл.,
гПа
погр.,
м
13 июня, вс
вс1300:00+16сз228976 0.6 101433
03:00+15сз22895 0.6 101427
06:00+15з22895 0.0 101340
09:00+20зюз34755 0.0 1013389
12:00+24зюз455238 0.0 10121399
15:00+23з4668100 1.1 1011805
18:00+18з3991100 3.3 1011493
21:00+15с51190100 5.0 1012558
14 июня, пн
пн1400:00+13ссз411935 0.0 1014417
03:00+13ссз4128867 0.0 1014422
06:00+12ссз4109091 0.0 1014351
09:00+16с496868 0.0 1014684
12:00+20св565058 0.0 10141663
15:00+19ссз5666100 1.5 10141186
18:00+18с567154 2.1 1013922
21:00+14с348799 4.1 101471
15 июня, вт
вт1500:00+13ссз4989100 0.4 1015241
03:00+11ссз5109199 0.4 1014320
06:00+11ссз51390100 0.0 1015419
09:00+15ссз61168100 0.0 1016755
12:00+19сз6954100 0.0 10151526
15:00+18ссз6960100 0.1 10141201
18:00+15сз61285100 0.4 1014788
21:00+14зсз41391100 2.2 1013719
16 июня, ср
ср1600:00+14з51394100 9.3 1012654
03:00+15зсз61489100 13.0 1011735
06:00+15ссз7168752 0.6 1011771
09:00+18ссз8147726 0.7 1012980
12:00+20ссз8136970 0.0 10131297
15:00+22ссз7126983 0.7 10141268
18:00+22ссз596939 1.3 10141054
21:00+18зсз48831 1.6 1015147
17 июня, чт
чт1700:00+16сз46864 0.0 101692
03:00+16зсз48816 0.0 1016143
06:00+16сз49855 0.0 1016201
09:00+21ссз5116723 0.0 1017780
12:00+21с496642 0.0 1017826
15:00+23ссз687144 1.0 1017998
18:00+23с577020 0.8 1017952
21:00+19ссз379066 2.5 1018167